Regional Weather Roundup
Issued by NWS Portland, ME

Home | Current Version | Previous Version | Text Only | Print | Product List | Glossary On
Versions: 1 2 3 4 5 6 7 8 9 10 11 12 13 14 15 16 17 18 19 20 21 22 23 24 25 26 27 28 29 30 31 32 33 34 35 36 37 38 39 40 41 42 43 44 45 46 47 48 49 50
000
ASUS41 KGYX 222110
RWRGYX
WEATHER ROUNDUP FOR MAINE AND NEW HAMPSHIRE
NATIONAL WEATHER SERVICE GRAY ME
500 PM EDT MON SEP 22 2014

MEZ002-005-006-010-012-015-018-020-021-024-026-027-029-222200-
MAINE

CITY           SKY/WX    TMP DP  RH WIND       PRES   REMARKS
PORTLAND       MOSUNNY   64  42  44 W17G26    29.78R
SANFORD        MOSUNNY   64  43  45 NW13G22   29.81R
BAR HARBOR     SUNNY     64  46  52 W13G26    29.69R
WISCASSET      SUNNY     63  43  48 NW10G18   29.77R
ROCKLAND       SUNNY     63  43  48 W20G29    29.72R
FRYEBURG       SUNNY     60  38  43 NW12G22   29.80R
LEWISTONAUBURN PTSUNNY   59  39  47 NW15G23   29.79R
AUGUSTA        PTSUNNY   58  41  53 NW14G26   29.78R
WATERVILLE     MOSUNNY   57  39  51 W17G29    29.72R
BANGOR         MOSUNNY   62  41  46 W14G26    29.71R
GREENVILLE       N/A     48  39  71 VRB7      29.71R
MILLINOCKET    CLOUDY    55  43  63 W14G28    29.68R
HOULTON        CLOUDY    57  41  55 W16G35    29.59R
PRESQUE ISLE   CLOUDY    55  39  54 W18G30    29.56R
FRENCHVILLE    CLOUDY    50  46  86 W18G25    29.52R
CARIBOU        CLOUDY    54  43  66 W17G26    29.54R
$$

NHZ002-005-008-009-011-012-014-222200-
NEW HAMPSHIRE

CITY           SKY/WX    TMP DP  RH WIND       PRES   REMARKS
PORTSMOUTH     MOSUNNY   67  41  38 W12G23    29.79R
ROCHESTER      SUNNY     64  40  41 NW9       29.80R
NASHUA         MOSUNNY   66  40  38 NW18G26   29.83R
MANCHESTER     MOSUNNY   67  39  35 W13G21    29.81R
CONCORD        SUNNY     66  40  38 W18G25    29.82R
LACONIA        PTSUNNY   63  39  42 W16       29.80R
PLYMOUTH       FAIR      60  48  64 NW9G16    29.82S
BERLIN         CLOUDY    51  40  65 W9G20     29.84R
WHITEFIELD     PTSUNNY   52  40  63 W16G22    29.87R
JAFFREY        SUNNY     61  39  44 W16G22    29.88R
LEBANON        PTSUNNY   63  36  36 NW9G21    29.86R
MT WASHINGTON  FOG       28  28 100 W63         N/A  VSB 1/16WCI   8
$$

VTZ005-007-008-222200-
VERMONT

CITY           SKY/WX    TMP DP  RH WIND       PRES   REMARKS
ST JOHNSBURY     N/A     51  40  65 MISG      29.88R
MONTPELIER     CLOUDY    49  38  65 NW15G25   29.93R
BURLINGTON     PTSUNNY   53  37  54 W17G26    29.95R
$$

MAZ007-012-024-CTZ003-RIZ002-NYZ038-NYZ072-222200-
SOUTHERN NEW ENGLAND AND NY

CITY           SKY/WX    TMP DP  RH WIND       PRES   REMARKS
BOSTON         MOSUNNY   68  41  37 W22G29    29.83R
WORCESTER      SUNNY     60  42  51 W20G28    29.88R
NANTUCKET      SUNNY     69  57  65 W16G26    29.85R
PROVIDENCE     MOSUNNY   69  44  40 NW17G23   29.88R
HARTFORD       MOSUNNY   67  43  41 NW14G25   29.90R
ALBANY         PTSUNNY   56  39  53 W20G31    30.00R
NEW YORK CITY  MOSUNNY   69  45  41 NW15G26   29.94R
$$

ANZ081-ANZ082-ANZ150-NHZ014-MEZ023>029-222200-
COASTAL MARINE OBSERVATIONS

STATION/POSITION TIME  TEMP    WIND        PRES    WAVE
                       AIR SEA DIR/SP/G            HT/PER
                 (UTC) (F)     (DEG/KT/KT) (MB)    (FT/S)
MATINICUS ROCK   2100          290/ 25/ 27 1006.4R
PORTLAND WX BUOY 2050   63 58  300/ 16/ 21 1008.0R   8/11
WELLS            2000   65 59  320/ 12/ 18 1006.9R
ISLE OF SHOALS   2100   65     290/ 20/ 22 1008.3R
JEFFREYS LEDGE   2021      61                N/A     7/11
CASHES LEDGE BUO 2050   63 60              1007.3R  10/11
$$

.............KEY..............
   WCI - WIND CHILL
   TC  - TEMPERATURE IN CELSIUS
   VSB - VISIBILITY IN MILES
   HX  - HEAT INDEX
   FAIR- INDICATES FEW OR NO CLOUDS BELOW 12,000 FT, WITH NO
         SIGNIFICANT WEATHER AND/OR OBSTRUCTIONS TO VISIBILITY.




USA.gov is the U.S. government's official web portal to all federal, state and local government web resources and services.